Back to catalog

ARIANE 2 DEB

LostGTO
NORAD 33577·DEBRIS·🇫🇷 France

Launched Jan 27, 1989 from Guiana Space Centre

Loading…

TLE

StaleSource: Space-Track

Epoch: Sep 18, 2008, 09:33 UTC

1 33577U 89006BV  08262.39809309  .00000196  00000-0  26663-2 0  9998
2 33577   8.4325  67.1901 7136297 191.8428  25.4255  2.28334305 16641

Track ARIANE 2 DEB in real time with AllMySat

Download on the App Store